Home   Weather   Chennai   Past weeks

Flag for India Past Weather in Chennai, Tamil Nadu, India — Yesterday and Last 2 Weeks

Now
77 °F

Fog.


Feels Like: 78 °F
Forecast: 72 / 87 °F
Wind: 3 mph from West

Location: Madras / Minambakkam

Current Time: Feb 26, 2017 at 9:11:19 am

Latest Report: Feb 26, 2017 at 8:30 am


Visibility: 2 mi

Pressure: 29.92 "Hg

Humidity: 83%

Dew Point: 72 °F

Location of ChennaiLocation

Past Weather in Chennai — Graph

°F

Chennai Temperature Yesterday

Maximum temperature yesterday: 88 °F (at 11:30 am)
Minimum temperature yesterday: 72 °F (at 6:30 am)
Average temperature yesterday: 80 °F

High & Low Weather Summary for the Past Weeks

 TemperatureHumidityPressure
High97 °F (Feb 20, 3:00 pm)94% (Feb 19, 6:00 am)30.12 "Hg (Feb 19, 6:00 am)
Low70 °F (Feb 16, 6:00 am)30% (Feb 20, 3:00 pm)29.74 "Hg (Feb 20, 3:00 pm)
Average80 °F69%29.95 "Hg
* Reported Feb 11 7:30 am — Feb 26 7:30 am, Chennai, Weather by CustomWeather, © 2017

Note: Actual official high and low records may vary slightly from our data, if they occured in-between our weather recording intervals... More about our weather records

Advertising

Chennai Weather History for the Previous 24 Hours

Scroll right to see more
 ConditionsComfort  
Time TempWeatherWind HumidityBarometerVisibility
7:30 am
Sun, Feb 26
73 °FFog.No wind94%29.89 "Hg1 mi
7:00 am73 °FFog.3 mph94%29.86 "Hg1 mi
6:30 am73 °FFog.3 mph94%29.86 "Hg1 mi
6:00 am73 °FFog.3 mph89%29.86 "Hg2 mi
5:30 am73 °FFog.No wind94%29.83 "Hg2 mi
5:00 am73 °FFog.5 mph94%29.83 "Hg2 mi
4:30 am75 °FFog.5 mph89%29.83 "Hg2 mi
4:00 am73 °FFog.5 mph94%29.83 "Hg2 mi
3:30 am73 °FFog.No wind94%29.83 "Hg3 mi
3:00 am75 °FPassing clouds.No wind83%29.83 "Hg4 mi
2:30 am75 °FPassing clouds.No wind83%29.86 "Hg4 mi
2:00 am75 °FPassing clouds.No wind89%29.86 "Hg4 mi
1:30 am75 °FPassing clouds.3 mph89%29.86 "Hg4 mi
1:00 am75 °FPassing clouds.3 mph89%29.89 "Hg4 mi
12:30 am75 °FPassing clouds.3 mph83%29.89 "Hg4 mi
12:00 am75 °FPassing clouds.3 mph83%29.92 "Hg4 mi
11:30 pm
Sat, Feb 25
77 °FPassing clouds.5 mph79%29.92 "Hg4 mi
11:00 pm77 °FPassing clouds.5 mph79%29.92 "Hg4 mi
10:30 pm77 °FPassing clouds.5 mph79%29.92 "Hg4 mi
10:00 pm77 °FPassing clouds.5 mph83%29.95 "Hg4 mi
9:30 pm77 °FPassing clouds.5 mph79%29.95 "Hg4 mi
9:00 pm77 °FPassing clouds.6 mph79%29.95 "Hg4 mi
8:30 pm77 °FPassing clouds.6 mph79%29.95 "Hg4 mi
8:00 pm79 °FPassing clouds.6 mph74%29.92 "Hg4 mi
7:30 pm79 °FPassing clouds.7 mph74%29.92 "Hg4 mi
7:00 pm79 °FPassing clouds.7 mph79%29.92 "Hg4 mi
6:30 pm79 °FPassing clouds.6 mph74%29.89 "Hg4 mi
6:00 pm81 °FPassing clouds.6 mph70%29.89 "Hg5 mi
5:30 pm82 °FPassing clouds.8 mph66%29.89 "Hg5 mi
5:00 pm82 °FPassing clouds.6 mph66%29.86 "Hg5 mi
4:30 pm84 °FPassing clouds.6 mph62%29.86 "Hg5 mi
4:00 pm84 °FPassing clouds.6 mph62%29.86 "Hg5 mi
3:30 pm84 °FPassing clouds.6 mph62%29.86 "Hg5 mi
3:00 pm86 °FPassing clouds.8 mph59%29.86 "Hg5 mi
2:30 pm86 °FPassing clouds.8 mph59%29.89 "Hg5 mi
2:00 pm86 °FPassing clouds.8 mph59%29.89 "Hg5 mi
1:30 pm86 °FPassing clouds.7 mph59%29.92 "Hg5 mi
1:00 pm88 °FPassing clouds.7 mph55%29.92 "Hg5 mi
12:30 pm88 °FPassing clouds.7 mph55%29.95 "Hg5 mi
12:00 pm86 °FPassing clouds.6 mph59%29.95 "Hg4 mi
11:30 am88 °FPassing clouds.5 mph55%29.98 "Hg4 mi
11:00 am86 °FScattered clouds.5 mph59%29.98 "Hg4 mi
10:30 am84 °FScattered clouds.3 mph66%29.98 "Hg4 mi
10:00 am84 °FScattered clouds.3 mph66%30.01 "Hg4 mi
9:30 am81 °FScattered clouds.2 mph74%30.01 "Hg3 mi
9:00 am81 °FFog.2 mph74%29.98 "Hg2 mi
Weather by CustomWeather, © 2017

See weather overviewHow to use our weather pages